EHI
0 0 0 0 0 0 0 0 0 0 0 0 0 0 0 0 0 0 0 0 0 0 0 0 0 0 0 0 0 0 0 0 0 0 0 0 0 0
0 0 0 0 0 0 0 0 0 0 0 0 0 0 0 0 0 0 0 0 0 0 0 0 0 0 0 0 0 0 0 0 0 0 0 0 0 0
0 0 0 0 0 0 0 0 0 0 0 0 0 0 0 0 0 0 0 0 0 0 0 0 0 0 0 0 0 0 0 0 0 0 0 0 0 0
0 0 0 0 0 0 0 0 0 0 0 0 0 0 0 0 0 0 0 0 0 0 0 0 0 0 0 0 0 0 0 0 0 0 0 0 0 0
0 0 0 0 0 0 0 0 0 0 0 0 0 0 0 0 0 0 0 0 0 0 0 0 0 0 0 0 0 0 0 0 0 0 0 0 0 0
0 0 0 0 0 0 0 0 0 0 0 0 0 0 0 0 0 0 0 0 0 0 0 0 0 0 0 0 0 0 0 0 0 0 0 0 0 0
0 0 0 0 0 0 0 0 0 0 0 0 0 0 0 0 0 0 0 0 0 0 0 0 0 0 0 0 0 0 0 0 0 0 0 0 0 0
0 0 0 0 0 0 0 0 0 0 0 0 0 0 0 0 0 0 0 0 0 0 0 0 0 0 0 0 0 0 0 0 0 0 0 0 0 0
0 0 0 0 0 0 0 0 0 0 0 0 0 0 0 0 0 0 0 0 0 0 0 0 0 0 0 0 0 0 0 0 0 0 0 0 0 0
0 0 0 0 0 0 0 0 0 0 0 0 0 0 0 0 0 0 0 0 0 0 0 0 0 0 0 0 0 0 0 0 0 0 0 0 0 0
0 0 0 0 0 0 0 0 0 0 0 0 0 0 0 0 0 0 0 0 0 0 0 0 0 0 0 0 0 0 0 0 0 0 0 0 0 0
0 0 0 0 0 0 0 0 0 0 0 0 0 0 0 0 0 0 0 0 0 0 0 0 0 0 0 0 0 0 0 0 0 0 0 0 0 0
0 0 0 0 0 0 0 0 0 0 0 0 0 0 0 0 0 0 0 0 0 0 0 0 0 0 0 0 0 0 0 0 0 0 0 0 0 0
0 0 0 0 0 0 0 0 0 0 0 0 0 0 0 0 0 0 0 0 0 0 0 0 0 0 0 0 0 0 0 0 0 0 0 0 0 0
0 0 0 0 0 0 0 0 0 0 0 0 0 0 0 0 0 0 0 0 0 0 0 0 0 0 0 0 0 0 0 0 0 0 0 0 0 0
0 0 0 0 0 0 0 0 0 0 0 0 0 0 0 0 0 0 0 0 0 0 0 0 0 0 0 0 0 0 0 0 0 0 0 0 0 0
0 0 0 0 0 0 0 0 0 0 0 0 0 0 0 0 0 0 0 0 0 0 0 0 0 0 0 0 0 0 0 0 0 0 0 0 0 0
0 0 0 0 0 0 0 0 0 0 0 0 0 0 0 0 0 0 0 0 0 0 0 0 0 0 0 0 0 0 0 0 0 0 0 0 0 0
0 0 0 0 0 0 0 0 0 0 0 0 0 0 0 0 0 0 0 0 0 0 0 0 0 0 0 0 0 0 0 0 0 0 0 0 0 0
0 0 0 0 0 0 0 0 0 0 0 0 0 0 0 0 0 0 0 0 0 0 0 0 0 0 0 0 0 0 0 0 0 0 0 0 0 0
0 0 0 0 0 0 0 0 0 0 0 0 0 0 0 0 0 0 0 0 0 0 0 0 0 0 0 0 0 0 0 0 0 0 0 0 0 0
0 0 0 0 0 0 0 0 0 0 0 0 0 0 0 0 0 0 0 0 0 0 0 0 0 0 0 0 0 0 0 0 0 0 0 0 0 0
0 0 0 0 0 0 0 0 0 0 0 0 0 0 0 0 0 0 0 0 0 0 0 0 0 0 0 0 0 0 0 0 0 0 0 0 0 0
Wind_Speed
2 3 2 1 1 1 2 3 3 2 2 1 0 1 1 1 2 2 3 6 10 10 11 11 11 12 12 12 12 12 13 14 14 15 15 16 16 17
2 2 2 2 2 2 2 1 2 2 2 2 1 2 2 2 4 3 3 8 9 10 10 11 11 11 12 11 11 12 12 13 14 15 16 16 16 17
2 3 2 2 2 2 2 1 1 1 2 2 2 1 2 3 3 3 3 3 3 9 10 11 11 11 11 11 11 12 13 13 14 15 16 16 16 17
3 3 3 2 2 2 2 2 1 1 2 3 2 2 2 3 3 3 3 3 3 8 10 10 10 11 11 11 11 12 13 13 14 15 15 16 16 17
4 4 4 4 3 2 2 2 1 1 1 2 2 2 2 2 3 3 3 3 4 6 7 9 9 10 11 11 11 12 13 13 14 14 15 15 16 16
3 3 3 4 4 3 3 3 2 1 1 1 2 2 2 2 2 3 4 3 4 4 6 7 8 10 11 12 12 12 13 14 14 14 15 15 15 15
2 2 2 3 3 2 2 2 2 2 2 1 2 2 2 2 2 3 4 4 4 3 4 4 4 4 5 8 10 11 12 13 14 14 14 15 15 15
2 2 2 2 3 2 2 2 2 2 2 2 2 3 3 3 3 3 3 4 4 2 3 5 3 4 4 3 8 11 12 13 13 14 14 15 15 15
3 2 2 1 2 2 1 1 1 2 3 3 3 4 3 3 3 3 3 4 5 4 4 5 3 4 4 5 10 11 12 13 13 14 14 14 15 15
2 3 3 2 2 2 1 0 0 1 2 1 2 2 3 3 3 3 4 4 4 3 2 4 4 4 5 4 8 10 12 12 13 14 14 14 14 14
2 2 2 2 3 2 2 1 0 1 2 2 3 3 4 5 4 2 2 3 4 3 2 2 3 4 4 4 5 9 11 13 13 14 15 15 15 13
1 1 2 2 2 2 2 2 1 1 1 2 2 3 3 3 5 2 2 2 3 3 2 2 3 4 4 3 3 4 6 10 13 14 15 15 15 8
1 1 1 2 2 2 1 2 2 1 1 0 1 1 2 2 2 2 2 2 3 3 3 2 2 2 3 5 4 4 4 5 5 7 10 14 14 9
2 1 1 2 2 2 1 1 1 1 1 0 0 1 2 2 2 2 2 2 3 4 4 3 2 3 3 4 5 5 4 4 4 5 5 10 10 11
1 1 1 1 1 1 1 1 1 1 1 0 1 2 2 2 2 2 2 3 3 3 3 3 2 3 3 3 4 5 5 5 4 4 5 5 5 5
1 1 2 1 1 1 1 1 0 1 0 1 1 1 1 2 2 2 2 2 2 3 3 2 2 2 3 3 3 5 4 4 5 6 5 5 4 4
1 1 1 1 1 1 1 0 0 0 0 0 0 1 1 2 2 2 2 2 2 3 4 3 3 2 2 3 3 4 4 4 4 5 5 5 5 4
2 1 1 1 1 1 1 0 0 1 1 0 1 1 1 2 2 2 2 2 2 3 3 3 4 3 2 2 2 3 4 4 5 5 4 4 5 5
1 1 1 1 1 1 1 1 1 1 1 1 1 1 2 1 2 2 2 2 2 2 3 3 3 2 3 4 4 2 3 4 5 4 4 3 5 6
1 1 1 1 1 1 1 1 1 1 1 1 1 1 1 1 2 2 2 2 2 2 3 2 2 2 2 3 4 5 5 4 4 4 4 4 4 6
0 1 1 1 1 1 1 1 1 1 1 1 1 2 1 1 1 2 2 2 2 2 2 3 3 5 2 2 2 4 4 6 5 4 4 4 4 4
1 1 1 1 1 1 1 1 1 1 1 1 1 1 1 1 1 2 1 1 1 2 2 2 3 2 2 2 3 4 5 6 6 7 6 4 3 3
1 1 1 1 1 1 1 1 1 1 1 1 1 1 1 1 1 1 1 1 1 2 2 2 3 2 2 2 3 3 5 6 5 5 5 8 8 8
Wind_Direction
171 160 163 167 152 146 149 157 168 214 263 247 306 296 335 326 308 314 304 323 329 330 330 332 333 333 333 334 334 334 334 334 333 330 329 329 329 329
166 163 173 165 154 149 163 174 177 184 231 257 270 282 308 317 315 316 306 320 325 324 327 329 330 332 333 334 334 334 334 334 332 330 329 330 329 329
171 177 189 170 163 163 162 170 186 184 234 276 293 301 309 308 306 303 305 304 306 318 321 324 328 331 333 333 333 333 332 332 331 331 331 329 330 329
184 181 187 174 168 168 169 183 197 209 214 259 291 301 296 291 295 302 308 311 308 313 316 323 327 329 331 330 332 333 333 332 331 330 330 329 329 329
181 184 188 174 180 180 178 188 199 218 211 232 277 290 293 294 308 306 306 306 313 315 319 322 322 326 330 331 332 333 333 332 330 330 329 329 329 329
180 187 186 182 186 182 189 193 194 199 203 226 264 282 289 296 309 312 318 316 317 314 316 315 317 326 327 327 328 329 331 331 331 331 330 330 329 328
179 184 177 177 185 194 203 197 186 192 200 224 251 281 285 304 303 306 309 314 312 304 308 311 317 318 320 321 324 327 328 330 331 331 331 331 329 328
175 174 163 163 176 207 249 243 213 202 210 219 251 258 276 290 300 302 310 317 311 309 316 307 309 307 306 306 318 324 327 329 330 332 332 331 330 328
181 173 177 171 165 163 214 327 333 299 255 235 233 250 264 274 286 297 302 301 293 296 312 300 303 300 302 308 318 324 327 330 332 333 333 333 333 331
185 183 177 179 180 175 178 174 18 350 297 271 232 252 265 274 266 271 283 295 293 295 305 295 300 299 304 301 311 324 330 332 334 334 334 334 335 336
192 181 176 179 192 187 154 146 66 356 355 340 314 308 312 318 314 312 309 309 309 308 315 295 300 308 300 294 309 326 330 333 336 337 338 339 338 337
181 174 179 184 187 188 170 164 185 263 311 344 351 344 337 336 332 308 280 291 302 301 298 313 308 325 315 296 304 321 324 328 332 335 338 341 341 338
190 193 184 184 192 215 221 192 212 234 211 254 327 334 337 341 334 323 306 275 277 279 285 310 302 306 293 302 306 308 316 317 321 326 332 337 340 341
201 197 189 189 192 212 222 200 141 79 117 103 336 324 325 329 324 323 320 307 275 269 278 282 278 289 299 301 304 311 312 316 323 323 325 330 334 335
182 184 184 172 173 176 170 132 104 121 140 252 286 302 308 301 305 315 320 316 313 304 297 284 277 280 280 287 298 306 313 314 323 329 329 330 326 326
115 153 155 144 109 100 114 110 139 181 201 227 272 301 317 315 313 317 319 324 329 323 317 311 301 281 282 285 290 300 308 308 319 326 323 323 324 323
116 106 106 133 127 109 82 85 32 27 351 328 298 310 314 316 319 325 320 323 321 318 325 325 313 293 267 273 297 300 306 309 314 324 328 326 321 324
118 147 168 178 172 174 180 218 288 279 281 284 284 288 293 307 320 326 328 325 323 323 323 325 332 333 336 315 263 292 308 311 319 324 328 324 321 326
127 172 200 203 199 201 200 216 254 275 279 273 281 286 292 306 312 315 321 328 328 325 325 327 335 342 341 328 315 315 313 315 321 324 323 317 308 315
152 182 214 219 208 201 204 227 247 274 284 282 284 286 291 299 306 310 310 316 319 326 333 339 342 336 310 295 299 307 317 311 313 317 317 311 298 302
202 201 210 222 222 207 209 231 238 257 281 283 279 289 297 304 304 304 305 309 320 333 333 324 308 311 298 304 312 314 318 323 318 308 313 319 323 331
232 228 220 211 223 214 201 213 228 260 273 280 283 288 293 295 294 297 306 317 328 329 319 315 321 332 349 346 326 318 322 329 333 334 330 321 318 327
266 253 227 208 202 207 211 217 220 237 256 271 279 287 289 290 298 302 307 319 331 336 335 335 343 353 346 334 326 324 331 334 338 346 344 341 331 310